Jorge Pulgar

Scout - Iquique
3 Dec 2028
Sunday
Process

Personality

Adaptability (3) Ambition (9) Controversy (19) Loyalty (4) Pressure (10) Professionalism (8) Sportsmanship (4) Temperament (5)

Profile

Coaching Style Democratic
License Continental B
Determination 4
Man Management 7
Motivating 11
Discipline 5
Job Satisfaction
100%
Fatigue
0%
Role Scout
Wage 46.6K p/w
Contract 14.03.2030

Performance

Behaviour Good
Training Effectiveness
39%
Player Development
35%
Injury Prevention
40%
Tactical Implementation
40%

Recent Events

Attended a recruitment meeting now
Recommended a transfer target now
Recommended a transfer target now
Assessed a player now
Assessed a player 7d ago
Assessed a player 7d ago
Assessed a player 7d ago
Assessed a player 7d ago

Currently Monitoring

113
Player Club Status Ability Confidence Watched Last Observed Latest Vote
Agustín Alaniz Rentistas Active 122 / 114 40% 4 30.11.2028 -
Diego Castillo Aguilas Doradas Active 114 / 118 40% 7 30.11.2028 -
Jeinner Fuentes Deportes Tolima Active 105 / 106 40% 3 30.11.2028 -
Julian Herrera Cortulua Active 121 / 122 40% 4 29.11.2028 -
Nicolás Medina Atlanta Active 115 / 106 40% 5 29.11.2028 -
James Emo Rangers International Active 97 / 82 40% 1 29.11.2028 -
Francisco Bonfiglio Boston River Active 115 / 114 40% 3 28.11.2028 -
César Magallan Estudiantes de Merida Active 108 / 107 40% 2 28.11.2028 -
Jorge Rivaldo Real Cartagena Active 120 / 125 40% 8 25.11.2028 -
Mauro Valiente Estudiantes Active 113 / 106 40% 5 25.11.2028 -
Bruno Miño Almirante Brown Active 104 / 111 40% 1 25.11.2028 -
Alejandro Piedrahita Deportivo Pereira Active 129 / 126 40% 4 24.11.2028 -
Augusto Berrondo Tristán Suárez Active 117 / 99 40% 7 24.11.2028 -
Andrés Carreño Aguilas Doradas Active 110 / 102 40% 5 24.11.2028 -
Kelvin Flórez Deportes Tolima Active 121 / 126 40% 5 23.11.2028 -
Gianluca Pugliese Güemes Active 108 / 119 40% 3 23.11.2028 -
Walter Núñez Montevideo City Torque Active 112 / 119 40% 1 23.11.2028 -
Agustín Rodríguez Juventud Active 131 / 130 40% 5 22.11.2028 -
Rafael Moreno Atletico Venezuela Active 114 / 125 40% 4 22.11.2028 -
Daniel Barrea Godoy Cruz Active 131 / 131 40% 3 22.11.2028 -
Leandro Suhr Boston River Active 124 / 113 40% 2 19.11.2028 -
Jonás Acevedo Instituto Active 117 / 121 40% 2 19.11.2028 -
Kévin Denkey FC Cincinnati Active 128 / 138 40% 3 18.11.2028 -
Esteban Obregón Montevideo City Torque Active 122 / 119 40% 5 18.11.2028 -
Sebastián Cocimano Nueva Chicago Active 114 / 115 40% 4 17.11.2028 -
Junior Paredes Trujillanos Active 108 / 102 40% 2 17.11.2028 -
Abubakar Garba Nasarawa United Active 100 / 108 40% 1 17.11.2028 -
Lucas Pedraza Defensores Unidos Active 106 / 108 40% 2 15.11.2028 -
Enzo González Defensores Active 113 / 112 40% 3 13.11.2028 -
Jhonier Blanco Fortaleza CEIF Active 117 / 114 40% 1 12.11.2028 -
Ronaldo Peña Deportivo Lara Active 112 / 97 40% 1 12.11.2028 -
Santiago Sala Güemes Active 117 / 115 40% 7 11.11.2028 -
Marco Miori Alvarado Active 113 / 115 40% 1 11.11.2028 -
Cheikh Sabaly Vancouver Whitecaps Active 134 / 118 40% 2 09.11.2028 -
Jonás Luna Wanderers Active 119 / 131 40% 3 09.11.2028 -
Maclyn Biokpo Jenewari Rivers United Active 116 / 99 40% 2 08.11.2028 -
Ruyery Blanco Alianza Petrolera Active 106 / 116 40% 3 08.11.2028 -
Lorenzo Barrera Agropecuario Argentino Active 105 / 98 40% 1 08.11.2028 -
Santiago Guzmán Wanderers Active 111 / 110 40% 1 06.11.2028 -
Ignacio Yepez Cerrito Active 106 / 100 40% 2 05.11.2028 -
Emiliano Gómez Boston River Active 119 / 117 40% 1 05.11.2028 -
Luca Langoni Columbus Crew Active 140 / 114 40% 2 03.11.2028 -
Leonardo Campana New England Revolution Active 137 / 111 40% 3 02.11.2028 -
Timothy Zechariah Rivers United Active 101 / 84 40% 1 02.11.2028 -
Matías Sosa Arsenal Active 111 / 118 40% 3 01.11.2028 -
Juan Hurtado Alianza Petrolera Active 126 / 123 40% 3 01.11.2028 -
Ramiro Ruiz Rodríguez Atlético Tucumán Active 119 / 121 40% 2 31.10.2028 -
Nahuel da Silva Montevideo City Torque Active 102 / 109 40% 2 30.10.2028 -
Nicolás González Cerro Largo Active 104 / 100 40% 2 29.10.2028 -
Luciano Cosentino Wanderers Active 125 / 119 40% 5 26.10.2028 -
Federico Álvarez Dinamo Tbilisi Active 105 / 112 40% 2 24.10.2028 -
Blas Armoa Gimnasia y Esgrima Active 127 / 113 40% 1 24.10.2028 -
Facundo de León Progreso Active 115 / 119 40% 2 23.10.2028 -
Mauro Molina Estudiantes Active 102 / 117 40% 1 22.10.2028 -
Jeriel De Santis Caracas Active 111 / 104 40% 1 22.10.2028 -
Michael Nike Patriotas Active 109 / 96 40% 3 16.10.2028 -
Lisandro Cabrera Maipú Active 109 / 120 40% 3 16.10.2028 -
Agustín Gallo Tristán Suárez Active 109 / 115 40% 2 14.10.2028 -
Favio Cabral Mitre Active 125 / 122 40% 1 11.10.2028 -
Franco García Molde Active 123 / 116 40% 1 11.10.2028 -
Alejo Cruz Juventud Active 119 / 131 40% 3 09.10.2028 -
Morgan Guilavogui Real Salt Lake Active 119 / 108 40% 1 09.10.2028 -
Luca Franco Arsenal Active 116 / 114 40% 1 09.10.2028 -
Tomás Jerez San Miguel Active 109 / 113 40% 2 08.10.2028 -
Agustín Colazo Unión de Santa Fe Active 120 / 115 40% 1 08.10.2028 -
Adalberto Peñaranda Deportivo Tachira Active 125 / 126 40% 1 06.10.2028 -
Elías Ayala Madryn Active 102 / 112 40% 1 04.10.2028 -
Camilo Machado Madryn Active 110 / 99 40% 1 04.10.2028 -
Gabriel Arango Zulia Active 97 / 101 40% 1 03.10.2028 -
Louis Munteanu Charlotte Football Club Active 123 / 115 40% 2 02.10.2028 -
Nicolás Ferreira Wanderers Active 117 / 129 40% 1 02.10.2028 -
Alexander González Cerro Active 105 / 103 40% 1 02.10.2028 -
Sebastián Marfort Racing Active 107 / 113 40% 1 29.09.2028 -
Suraju Lawal Remo Stars Active 86 / 101 40% 1 28.09.2028 -
Facundo Krüger Temperley Active 117 / 109 40% 4 24.09.2028 -
Juan Peinipil Madryn Active 102 / 112 40% 1 24.09.2028 -
Nicolás Cordero Aldosivi Active 121 / 120 40% 1 19.09.2028 -
Jáder Valencia Deportes Tolima Active 121 / 108 40% 2 17.09.2028 -
Santiago González Sporting Cristal Active 123 / 129 40% 2 14.09.2028 -
Tomás Blanco Estudiantes Active 113 / 116 40% 2 10.09.2028 -
Lucas Acosta Liverpool Montevideo Active 121 / 111 40% 1 10.09.2028 -
Mauricio Márquez Caracas Active 107 / 107 40% 2 06.09.2028 -
Eduardo Esterilla Deportivo Pereira Active 87 / 89 40% 1 06.09.2028 -
Sergio Núñez Liverpool Montevideo Active 113 / 97 40% 1 06.09.2028 -
Bruno Scorza La Luz Active 99 / 86 40% 1 01.09.2028 -
José Balza Deportivo Tachira Active 109 / 98 40% 1 01.09.2028 -
Joaquín Zappacosta Morón Active 90 / 103 40% 1 25.08.2028 -
Iván Maggi Sportivo Luqueno Active 123 / 111 40% 1 24.08.2028 -
Agustín Paz Progreso Active 117 / 108 40% 1 22.08.2028 -
Alexander Díaz Deportivo Riestra Active 126 / 121 40% 1 21.08.2028 -
Esteban da Silva Racing Active 120 / 107 40% 1 20.08.2028 -
Salomon Ramirez Atletico Venezuela Active 101 / 103 40% 1 18.08.2028 -
Joel Asoro Apollon Active 127 / 122 40% 1 18.08.2028 -
Agustín Kahl Fenix Active 114 / 109 40% 1 17.08.2028 -
Vanja Vlahović Spezia Active 126 / 139 40% 1 17.08.2028 -
Zakaria Eddahchouri Deportivo La Coruña Active 136 / 141 40% 2 16.08.2028 -
Adam Jakobsen Castellón Active 139 / 125 40% 2 14.08.2028 -
Abde Alavés Active 136 / 114 40% 1 14.08.2028 -
Seidu Basit Ashanti Gold Active 109 / 94 40% 1 12.08.2028 -
Kuki Zalazar Ceuta Active 109 / 131 40% 1 12.08.2028 -
Iñigo Córdoba Castellón Active 132 / 124 40% 2 10.08.2028 -
Camillo Tavernelli Arezzo Active 136 / 135 40% 1 10.08.2028 -
Maicol León Huachipato Active 98 / 85 72% 1 20.12.2027 Approve
José Matías Fernández Universidad de Chile Active 92 / 95 69% 1 12.07.2027 Approve
Franco Alfonso Olimpia Active 112 / 116 40% 1 06.08.2026 -
Miguel Pernía Carabobo Active 103 / 115 40% 1 05.08.2026 -
Brayan Palmezano Deportivo Tachira Active 105 / 111 40% 1 04.08.2026 -
Matías Pellegrini Vélez Active 117 / 125 40% 1 04.08.2026 -
Genaro Rossi San Martín SJ Active 103 / 110 40% 1 04.08.2026 -
Richard Torales Guarani Active 102 / 97 40% 1 04.08.2026 -
Mathías Bernatene Liverpool Montevideo Active 91 / 109 40% 1 01.08.2026 -
Lucas Meuli Unión de Santa Fe Active 92 / 95 40% 1 01.08.2026 -
Elías Villar Nacional Active 95 / 80 40% 1 01.08.2026 -